Conroe, Texas, United States (77301)
Lat: 30.31N, Lon: 95.46W
Wx Zone: TXZ199
Local Info
Past Weather Observations for Today

NOTE: This archive is for the closest National Weather Service station to Conroe. Information may differ from the station used for current weather conditions.

Click here for Long-term Archive

Time Weather Temperature Dewpoint Humidity Pressure Winds Precip Visibility
10:53
Partly Cloudy
88°F / 31°C 70°F / 21°C 55% 30.09 in
(1019 mb)
SSE 13.8 mph
(SSE 22 kph)
- 10SM
09:53
Partly Cloudy
88°F / 31°C 72°F / 22°C 59% 30.09 in
(1019 mb)
SSE 11.5 mph
(SSE 19 kph)
- 10SM
08:53
Partly Cloudy
84°F / 29°C 75°F / 24°C 74% 30.09 in
(1019 mb)
S 10.4 mph
(S 17 kph)
- 10SM
08:08
Mostly Cloudy
82°F / 28°C 77°F / 25°C 84% 30.09 in
(1019 mb)
S 9.2 mph
(S 15 kph)
- 8SM
07:53
Overcast
81°F / 27°C 77°F / 25°C 89% 30.09 in
(1019 mb)
S 9.2 mph
(S 15 kph)
- 7SM
07:48
Overcast
81°F / 27°C 77°F / 25°C 89% 30.09 in
(1019 mb)
S 8.1 mph
(S 13 kph)
- 7SM
07:25
Partly Cloudy
Fog And Mist
81°F / 27°C 75°F / 24°C 84% 30.06 in
(1018 mb)
S 5.8 mph
(S 9 kph)
- 5SM
07:05
Mostly Cloudy
Fog And Mist
79°F / 26°C 75°F / 24°C 89% 30.09 in
(1019 mb)
SE 4.6 mph
(SE 7 kph)
- 3SM
06:53
Clear
Fog And Mist
79°F / 26°C 75°F / 24°C 89% 30.09 in
(1019 mb)
SE 3.5 mph
(SE 6 kph)
- 2SM
05:53
Partly Cloudy
Fog And Mist
75°F / 24°C 73°F / 23°C 94% 30.06 in
(1018 mb)
Calm - 1 1/2SM
05:21
Mostly Cloudy
Fog And Mist
75°F / 24°C 73°F / 23°C 94% 30.06 in
(1018 mb)
Calm - 1 1/4SM
05:11
Partly Cloudy
Fog And Mist
75°F / 24°C 73°F / 23°C 94% 30.06 in
(1018 mb)
Calm - 1 1/2SM
04:53
Mostly Cloudy
Fog And Mist
75°F / 24°C 73°F / 23°C 94% 30.06 in
(1018 mb)
Calm - 1 3/4SM
04:39
Overcast
Fog And Mist
75°F / 24°C 73°F / 23°C 94% 30.06 in
(1018 mb)
Calm - 1 1/4SM
04:17
Overcast
Fog And Mist
75°F / 24°C 73°F / 23°C 94% 30.06 in
(1018 mb)
Calm - 1 1/2SM
03:56
Mostly Cloudy
Fog And Mist
75°F / 24°C 73°F / 23°C 94% 30.06 in
(1018 mb)
Calm - 1 3/4SM
03:53
Partly Cloudy
Fog And Mist
75°F / 24°C 73°F / 23°C 94% 30.06 in
(1018 mb)
Calm - 2SM
03:51
Partly Cloudy
Fog And Mist
75°F / 24°C 73°F / 23°C 94% 30.06 in
(1018 mb)
Calm - 2SM
03:12
Clear
Fog And Mist
75°F / 24°C 73°F / 23°C 94% 30.04 in
(1017 mb)
Calm - 1 1/2SM
02:53
Clear
Fog And Mist
75°F / 24°C 73°F / 23°C 94% 30.04 in
(1017 mb)
Calm - 2 1/2SM
01:53
Clear
Fog And Mist
75°F / 24°C 73°F / 23°C 94% 30.04 in
(1017 mb)
SSE 4.6 mph
(SSE 7 kph)
- 2 1/2SM
01:36
Clear
Fog And Mist
75°F / 24°C 73°F / 23°C 94% 30.04 in
(1017 mb)
SSE 3.5 mph
(SSE 6 kph)
- 2 1/2SM
00:53
Clear
Fog And Mist
77°F / 25°C 73°F / 23°C 89% 30.04 in
(1017 mb)
S 4.6 mph
(S 7 kph)
- 3SM
Time Weather Temperature Dewpoint Humidity Pressure Winds Precip Visibility


Weather for websites

WeatherForYou.com, LLC is not responsible for any damages or problems caused by this service. Current weather conditions are obtained from the closest station including government and personal stations which may have varying degrees of accuracy. Weather forecasts are derived from the NOAA NDFD. Like all things, this site belongs to Jesus Christ... He just trusts us to maintain it. If you have any questions or comments email webmaster@weatherforyou.com

Copyright © 2015, WeatherForYou.com LLC. All rights reserved.